Find Starlink 34795

NORAD ID: 65684 Int'l Des: 2025-212 Owner: SPXS Country: US Constellation: starlink operational
LEOCIRCULAR

当前视图

正在加载3D地球...

About Starlink 34795

Starlink 34795 (NORAD 65684) is a starlink constellation satellite (v2 mini) launched Sep 21, 2025 by SPXS of US. It operates in LEO, CIRCULAR orbit with a mass of 575.00 kg.

关于 Starlink 34795

正在加载描述...

即将过境

Passes for default location (London). Set your location on the main map for personalized predictions.

高度历史

Loading altitude history...

两行轨道根数

1 65684U 25212J 26195.19383782 .00016058 00000-0 48556-3 0 9996
2 65684 53.1582 117.2491 0001083 75.4025 284.7097 15.34387358 46571
Epoch: Jul 14, 2026 • Age: 5 hours

当前状态

高度 467.8 km
远地点 / 近地点 N/A
速度 7.63 km/s
星下点 -18.26°S, 31.23°E
发射日期 Sep 21, 2025
运行时间 0.8 years
类型 internet

技术详情

分类 Payload
质量 575.00 kg
干质量 530.00 kg
总质量 575.00 kg
长度 0.30 m
直径 4.10 m
跨度 29.00 m
形状 Box + pan
制造商 SPXS
平台类型 Starlink V2MO
阶段状态 In Orbit
所有者/国家 SPXS/US

Most Searched